This is the latest recevied weather packets stored in our database for station/object KE6RLG. If no packets are shown the sender has not sent any weather packets the latest 10 day(s).
| Time | Temp. | Humidity | Pressure | Rain* | Wind** | Luminosity | Snow |
|---|---|---|---|---|---|---|---|
| 1777353921 | 13.89° C | 72% | 1017.2 hPa | 0 mm | - | 0 W/m² | - |
| 1777353661 | 13.89° C | 72% | 1017.3 hPa | 0 mm | - | 0 W/m² | - |
| 1777351819 | 13.89° C | 70% | 1017.2 hPa | 0 mm | - | 0 W/m² | - |
| 1777351219 | 13.89° C | 69% | 1017.1 hPa | 0 mm | - | 0 W/m² | - |
| 1777350619 | 13.89° C | 69% | 1017 hPa | 0 mm | - | 0 W/m² | - |
| 1777349716 | 13.89° C | 67% | 1016.8 hPa | 0 mm | - | 0 W/m² | - |
| 1777346737 | 14.44° C | 67% | 1016.2 hPa | 0 mm | - | 0 W/m² | - |
| 1777346437 | 14.44° C | 67% | 1016.1 hPa | 0 mm | - | 0 W/m² | - |
| 1777345518 | 15° C | 68% | 1016 hPa | 0 mm | - | 0 W/m² | - |
| 1777342538 | 15.56° C | 64% | 1015.5 hPa | 0 mm | - | 22 W/m² | - |
| 1777342218 | 15.56° C | 64% | 1015.5 hPa | 0 mm | - | 26 W/m² | - |
| 1777337419 | 17.22° C | 54% | 1015.6 hPa | 0 mm | - | 242 W/m² | - |
| 1777336819 | 17.78° C | 49% | 1015.6 hPa | 0 mm | - | 277 W/m² | - |
| 1777336219 | 17.22° C | 51% | 1015.5 hPa | 0 mm | - | 311 W/m² | - |
| 1777334740 | 17.22° C | 49% | 1015.4 hPa | 0 mm | - | 403 W/m² | - |
| 1777334120 | 17.78° C | 49% | 1015.4 hPa | 0 mm | - | 438 W/m² | - |
| 1777332920 | 17.22° C | 51% | 1015.5 hPa | 0 mm | - | 508 W/m² | - |
| 1777332341 | 17.22° C | 52% | 1015.4 hPa | 0 mm | - | 542 W/m² | - |
| 1777329318 | 17.22° C | 51% | 1015.5 hPa | 0 mm | - | 701 W/m² | - |
| 1777323019 | 17.22° C | 50% | 1016.1 hPa | 0 mm | - | 917 W/m² | - |
| 1777322719 | 17.22° C | 49% | 1016.2 hPa | 0 mm | - | 923 W/m² | - |
| 1777320320 | 17.78° C | 50% | 1016.4 hPa | 0 mm | - | 954 W/m² | - |
| 1777319720 | 17.22° C | 51% | 1016.4 hPa | 0 mm | - | 953 W/m² | - |
| 1777317017 | 17.22° C | 58% | 1016.6 hPa | 0 mm | - | 948 W/m² | - |
| 1777316458 | 17.22° C | 58% | 1016.7 hPa | 0 mm | - | 956 W/m² | - |
* Rain latest hour (hover to see other rain measurements)
** Current wind speed in m/s (hover to see current wind gust speed)